Location: Courcelles
(49.2596°N, 1.7419°E)
Time: 07:35:19
(UTC+00:00)

Cosmos 1812 - Pass Details

Date: 17 November 2025
Orbit: 342 x 352 km, 82.5° (Epoch: 06 December)

Event Time Altitude Azimuth Distance (km) Brightness Sun altitude
Rises 17:28:21 0° 173° (S) 2,221 6.0 -12.9°
Reaches altitude 10° 17:30:22 10° 166° (SSE) 1,371 4.9 -13.2°
Maximum altitude 17:33:11 40° 95° (E) 562 2.4 -13.6°
Enters shadow 17:34:30 24° 41° (NE) 811 3.2 -13.8°
